Flag for Trinidad and Tobago Weather past 2 weeks in Port of Spain, Trinidad and Tobago

Now
86 °F

Scattered clouds.


Feels Like: 93 °F
Forecast: 77 / 87 °F
Wind: 14 mph from Southeast

Location: Piarco International Airport - Trinidad

Current Time: Jan 31, 2015 at 11:36:51 AM

Latest Report: Jan 31, 2015 at 11:00 AM


Visibility: N/A

Pressure: 29.98 "Hg

Humidity: 66%

Dew point: 73 °F

Location of Port of SpainLocation

Historic Weather in Port of Spain — Graph

°F

Port of Spain temperature yesterday

Maximum temperature yesterday: 86 °F (at 10:00 AM)
Minimum temperature yesterday: 73 °F (at 4:00 AM)
Average temperature yesterday: 78 °F

Past Weeks' High & Low Weather Summary

 TemperatureHumidityPressure
High90 °F (Jan 18, 1:00 PM)100% (Jan 24, 5:00 AM)30.01 "Hg (Jan 24, 5:00 AM)
Low70 °F (Jan 24, 5:00 AM)46% (Jan 28, 12:00 PM)29.86 "Hg (Jan 19, 3:00 PM)
Average79 °F78%29.93 "Hg
* Reported Jan 16 10:00 AM — Jan 31 10:00 AM, Port of Spain, Weather by CustomWeather, © 2014

Note: Actual official high and low records may vary slightly from our data, if they occured in-between our weather recording intervals... More about our weather records

Advertising

Port of Spain weather history for previous 24 hours

 ConditionsComfort  
Time TempWeatherWind HumidityBarometerVisibility
10:00 AM
Jan 31
84 °FPartly sunny.12 mph66%29.98 "HgN/A
9:00 AM84 °FPassing clouds.14 mph70%29.98 "HgN/A
8:00 AM81 °FScattered clouds.No wind79%29.95 "HgN/A
7:00 AM75 °FScattered clouds.No wind89%29.92 "HgN/A
6:00 AM73 °FPassing clouds.No wind94%29.92 "HgN/A
5:00 AM73 °FPassing clouds.No wind94%29.89 "HgN/A
4:00 AM75 °FPassing clouds.No wind89%29.89 "HgN/A
3:00 AM75 °FPassing clouds.No wind89%29.89 "HgN/A
2:00 AM75 °FPassing clouds.No wind94%29.92 "HgN/A
1:00 AM75 °FPassing clouds.No wind94%29.92 "HgN/A
12:00 AM75 °FPassing clouds.No wind94%29.92 "HgN/A
11:00 PM
Jan 30
75 °FPassing clouds.No wind94%29.92 "HgN/A
10:00 PM75 °FPassing clouds.No wind94%29.92 "HgN/A
9:00 PM77 °FPassing clouds.No wind89%29.92 "HgN/A
8:00 PM77 °FPassing clouds.No wind89%29.89 "HgN/A
7:00 PM77 °FPassing clouds.5 mph89%29.89 "HgN/A
6:00 PM77 °FScattered showers. Scattered clouds.No wind89%29.89 "HgN/A
5:00 PM77 °FScattered showers. Cloudy.6 mph94%29.89 "Hg4 mi
4:00 PM82 °FScattered showers. Broken clouds.15 mph74%29.86 "HgN/A
3:00 PM79 °FScattered showers. Broken clouds.12 mph89%29.89 "Hg4 mi
2:00 PM84 °FScattered showers. Broken clouds.16 mph70%29.89 "Hg4 mi
1:00 PM86 °FScattered showers. Partly sunny.12 mph70%29.92 "HgN/A
12:00 PM84 °FScattered showers. Broken clouds.16 mph66%29.95 "Hg4 mi
11:00 AM86 °FScattered showers. Partly sunny.14 mph62%29.95 "HgN/A
Weather by CustomWeather, © 2014

See weather overviewHow to use our weather pages